CZ-6A DEB, 54267

Orbit data source: Space-Track

CZ-6A DEB, 54267 is space debris in SSO originally from a launch on Fri, 11 Nov 2022 UTC launched from the Taiyaun Space Center, China (TSC). Debris objects in space refer to the collection of defunct objects orbiting the Earth. Examples of debris include non-operational satellites, rocket bodies, and fragments generated from explosions, collisions, or faulty payload assembly.

Loading next visibility...
Identifier
54267, 2022-151J
Orbit
SSO
Country
Flag of CNCN / PRC
Related business
Manufacturer
SAST
Mission
Spacecraft
Bus & Motor
Unknown
Mass
Unknown
Launch date (UTC)
2022-11-11 (4 years ago)
Launch vehicle
Unknown
Launch site
Taiyaun Space Center, China (TSC)
Object type
Payload
Rocket body
Debris
Shape & HBR
Unknown shape, 0.2 m
Radar Cross Section
Medium (>0.1 m² and <1 m²)

Expand to show TLE details & history
Last TLE update: 19 hours ago

TLE from 19 hours ago
0 CZ-6A DEB
1 54267U 22151J   26263.20683855  .00000928  00000-0  25524-3 0  9991
2 54267  98.7955 342.9590 0085886 350.2973   9.6556 14.47415441202948
Epoch: 2026-09-20T04:57Z
TLE epoch observation values (Epoch: 2026-09-20T04:57:50.850Z)
Latitude
-0.00004°
Longitude
-90.60721°
Altitude
676.836 km
Speed
7.55 km/s
True Right ascension
22h 51m 50s
True Declination
0° 00' 00"
Sunlit
Object was in full shadow at epoch
Visualization orbit readout
Latitude
Unknown
Longitude
Unknown
Altitude
Unknown
Speed
Unknown
Apparent Right ascension
Unknown
Apparent Declination
Unknown
Sunlit
N/A
Visualization observer readout
Local Sidereal Time
17:10:50
Azimuth
Unknown
Elevation
Unknown
Doppler factor
Unknown
Orbital elements
Apogee altitude
792.288 km
Perigee altitude
670.169 km
Semi-major axis
7,109.365 km
Eccentricity
0.00859
Inclination
98.7955°
RAAN
342.959°
Arg. of periapsis
350.2973°
True anomaly
9.82244°
Mean anomaly
9.6556°
Eccentric anomaly
9.73884°
Mean motion
3.62074 °/min
Orbital period
99.43 mins
BSTAR
0.00025524
Loading maneuver chart data...
Computing Atmospheric mass density...

Documentation

Showing up to 5 results
|